[[{"header":{"parameterUnit":"m.s-1","parameterCategory":1,"la1":30.2991,"la2":30.254,"lo1":-89.0895,"lo2":-89.0444,"dy":0.0017,"dx":0.0017,"nx":28,"ny":28,"refTime":"2024-06-13T21:00:00:Z","depth":0,"parameterNumber":2,"parameterNumberName":"U-component_of_WINDS"},"data":[0,0,0,0,0,0,0,0,0,0,0,0,0,0,0,0,0,0,0,0,0,0,0,0,0,0,0,0,0,0,0,0,0,0,0,0,0,0,0,0,0,0,0,0,0,0,0,0,0,0,0,0,0,0,0,0,0,0,1.0985,1.0985,0,1.1041,1.1042,1.1043,1.1031,1.103,1.1029,1.1028,1.1089,1.1091,1.1094,0,0,0,0,0,0,0,0,0,0,0,0,0,1.0868,1.087,1.0985,1.0985,1.0986,1.1041,1.1042,1.1043,1.1031,1.103,1.1029,1.1028,1.1088,1.1091,1.1094,0,0,0,0,0,0,0,0,0,0,0,0,0,1.0921,1.0871,1.0985,1.0987,1.0988,1.1041,1.1042,1.1043,1.1032,1.103,1.1029,1.1027,1.1087,1.109,1.1094,1.1149,0,0,1.1106,1.1108,0,0,0,0,0,0,0,0,1.0918,1.0925,1.0986,1.0987,1.0988,1.1028,1.1023,1.1079,1.1032,1.1015,1.1028,1.1026,1.107,1.1075,1.1089,1.1152,1.1155,1.1106,1.1109,1.111,1.1111,0,0,0,0,0,0,0,1.0914,1.0923,1.1007,1.0987,1.0988,1.0986,1.0991,1.1033,1.1051,1.1017,1.1016,1.1023,1.107,1.1085,1.109,1.1155,1.1106,1.111,1.1112,1.1114,1.1265,1.1266,0,0,0,0,0,0,1.0909,1.092,1.1005,1.1009,1.0948,1.0989,1.0995,1.1016,1.105,1.1054,1.1024,1.1022,1.1079,1.1086,1.1092,1.1158,1.111,1.1114,1.1116,1.1263,1.1265,1.1267,0,0,0,0,0,0,1.0907,1.0917,1.1003,1.0964,1.0975,1.0993,1.1016,1.1018,1.1034,1.1055,1.1059,1.1036,1.1078,1.1087,1.1135,1.116,1.1116,1.1119,1.1261,1.1264,1.1266,1.129,0,0,0,0,0,0,1.0904,1.0916,1.0938,1.0965,1.0977,1.1044,1.1018,1.1021,1.104,1.1038,1.1068,1.1072,1.1078,1.1129,1.1138,1.1164,1.1122,1.1259,1.1262,1.1265,1.1287,1.1293,1.1298,0,0,0,0,0,1.09,1.0943,1.0939,1.0949,1.1004,1.1046,1.1053,1.1059,1.1042,1.1063,1.1077,1.1071,1.1155,1.1134,1.1144,1.1172,1.1257,1.1261,1.1265,1.1285,1.1292,1.1298,0,0,0,0,0,0,1.092,1.0947,1.0942,1.0996,1.1018,1.1044,1.1071,1.1066,1.1095,1.1092,1.1099,1.1105,1.1154,1.1168,1.1143,1.1226,1.1204,1.121,1.1215,1.1223,1.1228,1.1224,1.1125,0,0,0,0,0,1.093,1.0962,1.0984,1.1029,1.104,1.1054,1.1072,1.1074,1.1099,1.1108,1.1126,1.115,1.1182,1.1203,1.1234,1.1289,1.1295,1.1313,1.1318,1.1323,1.1328,1.1357,1.1365,1.1279,1.1279,1.1279,0,0,1.0953,1.0971,1.0991,1.1033,1.1051,1.1084,1.1062,1.1098,1.1122,1.1114,1.116,1.1173,1.12,1.1252,1.1275,1.1265,1.1353,1.1328,1.1331,1.1334,1.1362,1.137,1.1377,1.1282,1.1281,1.1281,0,0,1.1011,1.1028,1.1067,1.1084,1.1111,1.1119,1.1128,1.1154,1.1162,1.1207,1.1202,1.123,1.1286,1.1305,1.1322,1.1384,1.1379,1.1394,1.1423,1.1451,1.1458,1.1464,1.1486,1.1494,1.1399,1.1399,1.1399,0,1.1036,1.1084,1.1087,1.1123,1.1141,1.1134,1.1173,1.119,1.1226,1.1239,1.1226,1.1294,1.1312,1.1367,1.1381,1.1396,1.1406,1.1391,1.1457,1.1463,1.1469,1.1489,1.1497,1.1401,1.14,1.14,1.14,0,1.1113,1.1147,1.1175,1.1207,1.1229,1.1266,1.1275,1.1296,1.1296,1.1305,1.1351,1.1372,1.1406,1.1419,1.142,1.1473,1.1466,1.1455,1.1433,1.1478,1.1498,1.1506,1.1403,1.1402,1.1402,1.1401,0,0,1.1188,1.122,1.123,1.1244,1.1271,1.1298,1.1334,1.1366,1.1383,1.1408,1.1438,1.1484,1.1473,1.1492,1.1495,1.1519,1.1566,1.1505,1.1506,1.1516,1.1626,1.1634,1.1643,1.1562,1.1564,1.1565,1.1624,0,1.1248,1.1311,1.1314,1.1371,1.1402,1.1394,1.1425,1.1445,1.1454,1.1482,1.1492,1.1524,1.1508,1.1519,1.1543,1.1555,1.1588,1.1551,1.1591,1.1592,1.1585,1.1654,1.1663,1.1717,1.1631,1.1633,1.1633,0,1.1327,1.1351,1.1412,1.1433,1.1446,1.1474,1.1502,1.1528,1.1551,1.1555,1.1576,1.1574,1.1611,1.1587,1.1637,1.1612,1.1628,1.1636,1.1639,1.1643,1.1616,1.166,1.1735,1.1743,1.1646,1.1645,1.1644,0,1.1375,1.1423,1.1465,1.1477,1.1503,1.1523,1.1534,1.1555,1.1573,1.1598,1.161,1.1639,1.1656,1.1678,1.1685,1.1666,1.1735,1.1712,1.174,1.174,1.1756,1.1755,1.1834,1.1766,1.1766,1.1765,1.1765,0,1.1442,1.1479,1.1486,1.1512,1.1553,1.1555,1.1596,1.1606,1.1624,1.1652,1.1647,1.1673,1.1679,1.1707,1.1712,1.1753,1.176,1.1765,1.1766,1.1766,1.1765,1.1777,1.1774,1.1768,1.1767,1.1767,1.1766,0,1.1503,1.1509,1.1554,1.1574,1.1579,1.1609,1.1626,1.165,1.1658,1.1693,1.1701,1.1713,1.1745,1.1752,1.1791,1.1794,1.1842,1.184,1.1835,1.1835,1.1862,1.186,1.1953,1.1965,1.1888,1.1889,1.1889,0,1.1545,1.1573,1.1595,1.1612,1.1625,1.1653,1.1671,1.1674,1.1693,1.1719,1.174,1.1771,1.1796,1.1847,1.1859,1.1888,1.1886,1.1917,1.1891,1.1889,1.1887,1.1885,1.1888,1.1922,1.1923,1.1924,1.1924,0,1.162,1.1621,1.1647,1.1673,1.1694,1.1715,1.1735,1.175,1.1755,1.1777,1.1808,1.1827,1.1865,1.1896,1.1924,1.1937,1.1932,1.1932,1.194,1.194,1.1936,1.1938,1.1848,1.193,1.193,1.1929,1.1929,1.1929,1.1673,1.1697,1.1715,1.1744,1.1758,1.1777,1.18,1.1809,1.1835,1.1866,1.1865,1.19,1.192,1.1957,1.1971,1.1998,1.1989,1.2001,1.2004,1.2007,1.2009,1.1931,1.2003,1.2003,1.2003,1.2003,1.2003,0,1.1748,1.1758,1.1784,1.1811,1.1833,1.1824,1.1845,1.1864,1.1894,1.1913,1.1936,1.1972,1.2,1.2014,1.2043,1.2062,1.206,1.2069,1.2068,1.2071,1.2016,1.2006,1.207,1.207,1.207,1.207,1.207,1.207,1.1789,1.1828,1.1831,1.1877,1.1888,1.192,1.1933,1.195,1.1964,1.2003,1.2027,1.2035,1.2051,1.208,1.2106,1.211,1.212,1.2131,1.2133,1.2082,1.2075,1.2068,1.2059,1.2133,1.2133,1.2186,1.2186,1.2187]},{"header":{"parameterUnit":"m.s-1","parameterCategory":1,"la1":30.2991,"la2":30.254,"lo1":-89.0895,"lo2":-89.0444,"dy":0.0017,"dx":0.0017,"nx":28,"ny":28,"refTime":"2024-06-13T21:00:00:Z","depth":0,"parameterNumber":3,"parameterNumberName":"V-component_of_WINDS"},"data":[0,0,0,0,0,0,0,0,0,0,0,0,0,0,0,0,0,0,0,0,0,0,0,0,0,0,0,0,0,0,0,0,0,0,0,0,0,0,0,0,0,0,0,0,0,0,0,0,0,0,0,0,0,0,0,0,0,0,-0.046,-0.0462,0,-0.0653,-0.0655,-0.0658,-0.0756,-0.0757,-0.0757,-0.0757,-0.096,-0.0965,-0.097,0,0,0,0,0,0,0,0,0,0,0,0,0,-0.0181,-0.0186,-0.046,-0.0462,-0.0465,-0.0653,-0.0656,-0.0658,-0.0756,-0.0757,-0.0757,-0.0757,-0.0958,-0.0964,-0.0971,0,0,0,0,0,0,0,0,0,0,0,0,0,-0.0331,-0.0187,-0.0459,-0.0536,-0.0545,-0.0652,-0.0656,-0.0659,-0.0756,-0.0757,-0.0757,-0.0757,-0.0956,-0.0964,-0.0972,-0.1019,0,0,-0.0996,-0.0999,0,0,0,0,0,0,0,0,-0.0322,-0.0341,-0.0522,-0.0531,-0.0541,-0.0681,-0.0632,-0.078,-0.0756,-0.0676,-0.0757,-0.0757,-0.0867,-0.0882,-0.0919,-0.1028,-0.1037,-0.0997,-0.1002,-0.1005,-0.1007,0,0,0,0,0,0,0,-0.0312,-0.0333,-0.0536,-0.0525,-0.0536,-0.0563,-0.0584,-0.066,-0.0769,-0.0683,-0.0691,-0.0712,-0.0872,-0.0911,-0.0924,-0.104,-0.0996,-0.1004,-0.1008,-0.1012,-0.12,-0.12,0,0,0,0,0,0,-0.0288,-0.0324,-0.053,-0.0542,-0.043,-0.0568,-0.0592,-0.0636,-0.0768,-0.0788,-0.0712,-0.0716,-0.0897,-0.0915,-0.0932,-0.0997,-0.1005,-0.1012,-0.1017,-0.12,-0.12,-0.12,0,0,0,0,0,0,-0.0282,-0.0306,-0.0523,-0.0435,-0.0465,-0.0572,-0.0621,-0.064,-0.0678,-0.079,-0.081,-0.0731,-0.0898,-0.092,-0.0996,-0.1005,-0.1016,-0.1023,-0.1199,-0.12,-0.12,-0.1126,0,0,0,0,0,0,-0.0274,-0.0303,-0.032,-0.0435,-0.0469,-0.0582,-0.0622,-0.0643,-0.0691,-0.0698,-0.0813,-0.0832,-0.09,-0.0984,-0.1004,-0.1016,-0.103,-0.1199,-0.12,-0.12,-0.1128,-0.1124,-0.112,0,0,0,0,0,-0.0263,-0.0293,-0.0321,-0.0345,-0.0493,-0.0582,-0.0602,-0.0678,-0.0691,-0.0711,-0.0783,-0.0828,-0.1,-0.0991,-0.1015,-0.1029,-0.1199,-0.1199,-0.12,-0.113,-0.1124,-0.112,0,0,0,0,0,0,-0.0178,-0.0309,-0.0342,-0.0409,-0.0483,-0.0599,-0.0626,-0.0669,-0.0743,-0.0747,-0.0839,-0.0864,-0.0932,-0.0989,-0.0975,-0.1083,-0.1105,-0.111,-0.1043,-0.1039,-0.1035,-0.102,-0.1036,0,0,0,0,0,-0.0167,-0.0226,-0.0338,-0.0387,-0.0422,-0.0517,-0.0559,-0.0611,-0.0692,-0.0725,-0.0803,-0.0882,-0.0954,-0.1,-0.1072,-0.1137,-0.1164,-0.1159,-0.1154,-0.115,-0.1154,-0.1194,-0.1194,-0.1202,-0.1202,-0.1202,0,0,-0.0144,-0.0223,-0.0256,-0.0372,-0.0436,-0.0497,-0.0543,-0.0606,-0.0653,-0.0735,-0.0811,-0.0871,-0.0966,-0.1036,-0.1071,-0.1085,-0.1158,-0.1151,-0.1147,-0.1153,-0.1195,-0.1194,-0.1193,-0.1202,-0.1202,-0.1202,0,0,-0.0136,-0.02,-0.0248,-0.0311,-0.0407,-0.047,-0.0481,-0.0591,-0.0633,-0.0711,-0.0774,-0.0832,-0.0954,-0.1019,-0.1068,-0.1085,-0.113,-0.1106,-0.1085,-0.1122,-0.1122,-0.1122,-0.1129,-0.113,-0.1109,-0.1109,-0.1109,0,-0.0096,-0.019,-0.0268,-0.0328,-0.0377,-0.0453,-0.0503,-0.0561,-0.0676,-0.071,-0.0723,-0.0879,-0.0948,-0.1035,-0.1039,-0.1076,-0.1093,-0.1093,-0.1115,-0.1116,-0.1117,-0.1125,-0.1127,-0.1105,-0.1106,-0.1106,-0.1106,0,-0.0138,-0.0202,-0.0229,-0.0337,-0.039,-0.0444,-0.0533,-0.0577,-0.0625,-0.0686,-0.0766,-0.0851,-0.0943,-0.0967,-0.1015,-0.1062,-0.1068,-0.1097,-0.1121,-0.1111,-0.1121,-0.1124,-0.11,-0.1102,-0.1103,-0.1103,0,0,-0.008,-0.023,-0.0239,-0.029,-0.0401,-0.0453,-0.0512,-0.06,-0.0637,-0.0714,-0.0767,-0.0869,-0.0897,-0.0952,-0.1008,-0.1041,-0.105,-0.1067,-0.107,-0.1061,-0.111,-0.1087,-0.109,-0.1081,-0.1081,-0.1082,-0.1102,0,-0.0088,-0.0195,-0.0267,-0.0347,-0.0408,-0.0481,-0.0532,-0.0607,-0.0667,-0.0729,-0.0797,-0.0867,-0.0898,-0.0932,-0.0968,-0.1041,-0.1061,-0.1041,-0.1133,-0.1135,-0.1107,-0.1094,-0.1071,-0.1086,-0.1106,-0.1107,-0.1107,0,-0.0111,-0.0184,-0.0269,-0.0375,-0.0403,-0.0448,-0.0535,-0.0593,-0.068,-0.0722,-0.0784,-0.084,-0.0908,-0.0925,-0.1021,-0.1005,-0.1047,-0.1089,-0.1091,-0.1104,-0.1121,-0.1107,-0.1092,-0.1094,-0.1113,-0.1113,-0.1112,0,-0.0061,-0.0182,-0.0248,-0.0289,-0.0414,-0.0444,-0.0498,-0.0585,-0.0634,-0.0711,-0.0744,-0.0828,-0.0874,-0.0939,-0.1018,-0.1023,-0.1106,-0.1129,-0.1144,-0.1141,-0.1158,-0.1156,-0.115,-0.1183,-0.1183,-0.1183,-0.1183,0,-0.0063,-0.0112,-0.0228,-0.0269,-0.0327,-0.0411,-0.0467,-0.0527,-0.0604,-0.066,-0.0729,-0.078,-0.088,-0.0944,-0.1007,-0.1077,-0.1097,-0.1134,-0.115,-0.1128,-0.1124,-0.1158,-0.1159,-0.1184,-0.1184,-0.1184,-0.1184,0,-0.0017,-0.0097,-0.0175,-0.0286,-0.0315,-0.0353,-0.045,-0.0494,-0.0557,-0.0627,-0.0648,-0.0749,-0.0828,-0.0912,-0.102,-0.1063,-0.113,-0.1152,-0.11,-0.1109,-0.1119,-0.1117,-0.1136,-0.1143,-0.1169,-0.1169,-0.1169,0,-0.0013,-0.0053,-0.0168,-0.0209,-0.0261,-0.0327,-0.0376,-0.0461,-0.0511,-0.0614,-0.0645,-0.0729,-0.0801,-0.0924,-0.1008,-0.1092,-0.1117,-0.1118,-0.113,-0.1107,-0.1119,-0.1116,-0.1121,-0.1114,-0.1113,-0.1113,-0.1112,0,0.0003,-0.0035,-0.0103,-0.0185,-0.0242,-0.0311,-0.0384,-0.0414,-0.0513,-0.0566,-0.0647,-0.0702,-0.0812,-0.0895,-0.0989,-0.1047,-0.1097,-0.1107,-0.1116,-0.1094,-0.1062,-0.1081,-0.109,-0.1107,-0.1107,-0.1108,-0.1108,-0.1108,0.0026,-0.0013,-0.01,-0.0174,-0.0237,-0.0303,-0.0349,-0.0418,-0.0487,-0.0582,-0.0628,-0.0709,-0.0798,-0.0928,-0.0985,-0.1051,-0.1066,-0.1077,-0.1081,-0.1082,-0.1077,-0.1051,-0.1069,-0.1069,-0.1069,-0.1069,-0.107,0,0.0038,-0.0022,-0.0089,-0.0187,-0.0246,-0.0286,-0.0368,-0.0415,-0.0485,-0.0562,-0.0631,-0.0725,-0.0806,-0.0896,-0.0984,-0.1019,-0.1045,-0.104,-0.1038,-0.1051,-0.1058,-0.1043,-0.1018,-0.1018,-0.1018,-0.1018,-0.1018,-0.1018,0.0037,-0.0032,-0.0079,-0.018,-0.0241,-0.0319,-0.0363,-0.0425,-0.0487,-0.0588,-0.0655,-0.0713,-0.0797,-0.089,-0.0968,-0.0992,-0.1022,-0.101,-0.1042,-0.1046,-0.1051,-0.1055,-0.1041,-0.1016,-0.1016,-0.103,-0.103,-0.103]}]]